Погода в Палм-Спрингс

США     33°48′50″N   116°30′58″W
темп.,
°C
ветер,
м/с
пор.,
м/с
влажн.,
%
обл.,
%
осадки,
мм/ч
давл.,
гПа
погр.,
м
31 июля, сб
сб3123:00+30зюз1133100 1.3 1014523
02:00+27ссв1146100 0.0 1015273
05:00+26всв015075 0.0 1015251
08:00+29всв113544 0.0 1016328
11:00+31всв22311 0.0 10161071
14:00+34всв43287 0.0 10152026
17:00+35юв242557 0.0 10132796
20:00+32зсз33231 0.0 1013609
1 августа, вс
вс123:00+29з44241 0.0 1015191
02:00+28з34200 0.0 1015126
05:00+28з33140 0.0 101580
08:00+31з22120 0.0 1016246
11:00+34ссв22110 0.0 10151543
14:00+37св23110 0.0 10142745
17:00+37з32110 0.0 10123217
20:00+32з45150 0.0 1014467
2 августа, пн
пн223:00+30з45160 0.0 1015189
02:00+29з44160 0.0 1015110
05:00+29з44150 0.0 101589
08:00+32з33130 0.0 1015197
11:00+36с12110 0.0 10141717
14:00+38всв33100 0.0 10123016
17:00+39ссз2290 0.0 10113186
20:00+34з45120 0.0 1012446
3 августа, вт
вт323:00+31з44120 0.0 1013142
02:00+31з34100 0.0 101282
05:00+31зюз33100 0.0 101251
08:00+34зсз22100 0.0 1012128
11:00+37ссв2290 0.0 10121688
14:00+40в3390 0.0 10103169
17:00+40в3390 0.0 10083422
20:00+35з44120 0.0 1009384
4 августа, ср
ср423:00+32з33130 0.0 1010129
02:00+31з33130 0.0 101078
05:00+31з33120 0.0 101061
08:00+34зюз11110 0.0 1011162
11:00+37в2290 0.0 10111412
14:00+39всв23100 0.0 10101945
17:00+39зюз2290 0.0 10082570
20:00+35з44120 0.0 1009341